Weather History for KIDP - March, 2013

Change the Weather History Date:

Wednesday, March 20, 2013

  Actual Average (KCNU) Record (KCNU)
Temperature  
Mean Temperature 38 °F 48 °F  
Max Temperature 46 °F 60 °F 82 °F (1953)
Min Temperature 30 °F 37 °F 12 °F (1965)
Degree Days  
Heating Degree Days 27 17  
Month to date heating degree days 396  
Since 1 July heating degree days 3968  
Cooling Degree Days 0 0  
Month to date cooling degree days 0  
Year to date cooling degree days 0  
Moisture  
Dew Point 22 °F    
Average Humidity 60    
Maximum Humidity 100    
Minimum Humidity 29    
Precipitation  
Precipitation 0.00 in 0.10 in 2.18 in (1909)
Month to date precipitation 1.88  
Year to date precipitation 5.04  
Sea Level Pressure  
Sea Level Pressure 30.28 in    
Wind  
Wind Speed 7 mph (NNE)    
Max Wind Speed 23 mph    
Max Gust Speed 26 mph    
Visibility 10 miles    
Events      
T = Trace of Precipitation, MM = Missing Value Source: NWS Daily Summary

Daily Weather History Graph

Daily Weather History Graph

Search for Another Location

Airport or City:

Trip Planner

Search our weather history database for the weather conditions in past years. The results will help you decide how hot, cold, wet, or windy it might be!

Date:

Astronomy

Mar. 20, 2013 Rise Set
Actual Time 7:26 AM CDT 7:35 PM CDT
Civil Twilight 7:00 AM CDT 8:01 PM CDT
Nautical Twilight 6:30 AM CDT 8:31 PM CDT
Astronomical Twilight 5:59 AM CDT 9:02 PM CDT
Moon 1:18 PM CDT (3/20) 2:59 AM CDT (3/20)
Length of Visible Light 13h 00m
Length of Day
12h 08m
First Quarter, 59% of the Moon is Illuminated
Mar 20
First Quarter
Mar 27
Full
Apr 2
Last Quarter
Apr 10
New
Apr 18
First Quarter

Hourly Weather History & Observations

Time (CDT) Temp. Windchill Dew Point Humidity Pressure Visibility Wind Dir Wind Speed Gust Speed Precip Events Conditions
12:15 AM 33.8 °F 29.6 °F 32.0 °F 93% 30.27 in 10.0 mi NNE 4.6 mph - N/A   Clear
12:35 AM 33.8 °F 30.8 °F 32.0 °F 93% 30.27 in 10.0 mi NNE 3.5 mph - N/A   Clear
12:55 AM 32.0 °F - 30.2 °F 93% 30.28 in 10.0 mi Calm Calm - N/A   Clear
1:15 AM 32.0 °F 27.5 °F 32.0 °F 100% 30.28 in 10.0 mi WNW 4.6 mph - N/A   Clear
1:35 AM 32.0 °F 25.6 °F 30.2 °F 93% 30.29 in 10.0 mi WNW 6.9 mph - N/A   Clear
1:55 AM 32.0 °F 25.6 °F 30.2 °F 93% 30.29 in 10.0 mi WNW 6.9 mph - N/A   Clear
2:15 AM 32.0 °F 26.4 °F 32.0 °F 100% 30.29 in 10.0 mi WNW 5.8 mph - N/A   Clear
2:35 AM 32.0 °F 27.5 °F 30.2 °F 93% 30.29 in 10.0 mi WNW 4.6 mph - N/A   Clear
2:55 AM 32.0 °F - 30.2 °F 93% 30.29 in 10.0 mi Calm Calm - N/A   Clear
3:15 AM 32.0 °F - 30.2 °F 93% 30.29 in 10.0 mi Calm Calm - N/A   Clear
3:35 AM 32.0 °F - 30.2 °F 93% 30.29 in 10.0 mi Calm Calm - N/A   Clear
3:55 AM 32.0 °F - 30.2 °F 93% 30.28 in 7.0 mi Calm Calm - N/A   Clear
4:15 AM 30.2 °F 26.7 °F 30.2 °F 100% 30.28 in 7.0 mi NW 3.5 mph - N/A   Clear
4:35 AM 32.0 °F 27.5 °F 30.2 °F 93% 30.29 in 10.0 mi NW 4.6 mph - N/A   Clear
4:55 AM 30.2 °F 24.3 °F 30.2 °F 100% 30.29 in 10.0 mi NW 5.8 mph - N/A   Clear
5:15 AM 32.0 °F - 30.2 °F 93% 30.30 in 10.0 mi Calm Calm - N/A   Clear
5:35 AM 32.0 °F - 30.2 °F 93% 30.31 in 10.0 mi Calm Calm - N/A   Clear
5:55 AM 32.0 °F - 30.2 °F 93% 30.31 in 10.0 mi Calm Calm - N/A   Clear
6:15 AM 32.0 °F 24.8 °F 30.2 °F 93% 30.34 in 10.0 mi North 8.1 mph - N/A   Clear
6:35 AM 32.0 °F 23.6 °F 30.2 °F 93% 30.34 in 10.0 mi North 10.4 mph - N/A   Clear
6:55 AM 32.0 °F 22.5 °F 32.0 °F 100% 30.35 in 10.0 mi North 12.7 mph - N/A   Clear
7:15 AM 32.0 °F 22.5 °F 32.0 °F 100% 30.36 in 10.0 mi North 12.7 mph - N/A   Clear
7:35 AM 32.0 °F 21.2 °F 30.2 °F 93% 30.37 in 10.0 mi North 16.1 mph 23.0 mph N/A   Clear
7:55 AM 32.0 °F 22.5 °F 28.4 °F 87% 30.38 in 10.0 mi North 12.7 mph - N/A   Clear
8:15 AM 32.0 °F 21.2 °F 26.6 °F 80% 30.39 in 10.0 mi North 16.1 mph - N/A   Clear
8:35 AM 32.0 °F 22.1 °F 24.8 °F 75% 30.40 in 10.0 mi North 13.8 mph 18.4 mph N/A   Clear
8:55 AM 33.8 °F 24.8 °F 23.0 °F 65% 30.40 in 10.0 mi North 12.7 mph 18.4 mph N/A   Clear
9:15 AM 33.8 °F 23.2 °F 21.2 °F 60% 30.41 in 10.0 mi North 17.3 mph 20.7 mph N/A   Clear
9:55 AM 35.6 °F 24.0 °F 14.0 °F 41% 30.41 in 10.0 mi North 23.0 mph 26.5 mph N/A   Clear
10:15 AM 35.6 °F 25.2 °F 12.2 °F 38% 30.42 in 10.0 mi North 18.4 mph 21.9 mph N/A   Clear
10:55 AM 35.6 °F 27.1 °F 14.0 °F 41% 30.42 in 10.0 mi North 12.7 mph - N/A   Overcast
11:15 AM 37.4 °F 30.3 °F 14.0 °F 38% 30.42 in 10.0 mi NNE 10.4 mph - N/A   Mostly Cloudy
11:35 AM 37.4 °F 29.8 °F 15.8 °F 41% 30.41 in 10.0 mi NNE 11.5 mph 16.1 mph N/A   Scattered Clouds
11:55 AM 41.0 °F 34.7 °F 14.0 °F 33% 30.40 in 10.0 mi North 10.4 mph 16.1 mph N/A   Clear
12:15 PM 41.0 °F 34.7 °F 14.0 °F 33% 30.39 in 10.0 mi NNE 10.4 mph - N/A   Clear
12:35 PM 41.0 °F 34.3 °F 14.0 °F 33% 30.38 in 10.0 mi NNE 11.5 mph 17.3 mph N/A   Clear
12:55 PM 41.0 °F 33.9 °F 14.0 °F 33% 30.37 in 10.0 mi North 12.7 mph - N/A   Clear
1:15 PM 42.8 °F 36.6 °F 14.0 °F 31% 30.37 in 10.0 mi NNE 11.5 mph - N/A   Clear
1:35 PM 42.8 °F 37.5 °F 15.8 °F 34% 30.35 in 10.0 mi North 9.2 mph 16.1 mph N/A   Clear
1:55 PM 42.8 °F 38.6 °F 14.0 °F 31% 30.35 in 10.0 mi North 6.9 mph 18.4 mph N/A   Clear
2:15 PM 42.8 °F 37.5 °F 14.0 °F 31% 30.33 in 10.0 mi NNE 9.2 mph - N/A   Clear
2:35 PM 44.6 °F 38.4 °F 14.0 °F 29% 30.31 in 10.0 mi North 12.7 mph 16.1 mph N/A   Clear
2:55 PM 44.6 °F 40.2 °F 14.0 °F 29% 30.30 in 10.0 mi NW 8.1 mph - N/A   Clear
3:15 PM 44.6 °F 40.7 °F 15.8 °F 31% 30.28 in 10.0 mi North 6.9 mph - N/A   Clear
3:35 PM 44.6 °F 40.2 °F 15.8 °F 31% 30.27 in 10.0 mi NNE 8.1 mph 16.1 mph N/A   Clear
3:55 PM 44.6 °F 38.1 °F 15.8 °F 31% 30.25 in 10.0 mi North 13.8 mph 18.4 mph N/A   Clear
4:15 PM 44.6 °F 41.4 °F 14.0 °F 29% 30.24 in 10.0 mi North 5.8 mph - N/A   Clear
4:35 PM 44.6 °F 40.2 °F 15.8 °F 31% 30.23 in 10.0 mi North 8.1 mph - N/A   Clear
4:55 PM 46.4 °F 42.4 °F 15.8 °F 29% 30.23 in 10.0 mi North 8.1 mph - N/A   Clear
5:15 PM 44.6 °F 40.2 °F 15.8 °F 31% 30.21 in 10.0 mi NNE 8.1 mph - N/A   Clear
5:35 PM 44.6 °F 40.2 °F 15.8 °F 31% 30.20 in 10.0 mi NNW 8.1 mph - N/A   Clear
5:55 PM 44.6 °F - 14.0 °F 29% 30.20 in 10.0 mi Calm Calm - N/A   Clear
6:15 PM 44.6 °F 42.2 °F 14.0 °F 29% 30.19 in 10.0 mi North 4.6 mph - N/A   Clear
6:35 PM 44.6 °F 41.4 °F 15.8 °F 31% 30.18 in 10.0 mi NNE 5.8 mph - N/A   Clear
6:55 PM 42.8 °F 40.1 °F 17.6 °F 36% 30.18 in 10.0 mi North 4.6 mph - N/A   Clear
7:15 PM 41.0 °F 38.0 °F 17.6 °F 39% 30.17 in 10.0 mi NE 4.6 mph - N/A   Clear
7:35 PM 41.0 °F 39.0 °F 15.8 °F 36% 30.16 in 10.0 mi East 3.5 mph - N/A   Clear
7:55 PM 41.0 °F 39.0 °F 17.6 °F 39% 30.15 in 10.0 mi East 3.5 mph - N/A   Clear
8:15 PM 39.2 °F 35.9 °F 17.6 °F 42% 30.15 in 10.0 mi ENE 4.6 mph - N/A   Clear
8:35 PM 39.2 °F 35.9 °F 19.4 °F 45% 30.15 in 10.0 mi ESE 4.6 mph - N/A   Clear
8:55 PM 37.4 °F 33.8 °F 19.4 °F 48% 30.15 in 10.0 mi East 4.6 mph - N/A   Clear
9:15 PM 37.4 °F 32.8 °F 21.2 °F 52% 30.14 in 10.0 mi ESE 5.8 mph - N/A   Clear
9:35 PM 37.4 °F 32.8 °F 21.2 °F 52% 30.14 in 10.0 mi East 5.8 mph - N/A   Clear
9:55 PM 35.6 °F 30.7 °F 21.2 °F 56% 30.13 in 10.0 mi ESE 5.8 mph - N/A   Clear
10:15 PM 35.6 °F 30.7 °F 21.2 °F 56% 30.13 in 10.0 mi ESE 5.8 mph - N/A   Clear
10:35 PM 35.6 °F 29.9 °F 21.2 °F 56% 30.13 in 10.0 mi ESE 6.9 mph - N/A   Clear
10:55 PM 35.6 °F 30.7 °F 21.2 °F 56% 30.12 in 10.0 mi East 5.8 mph - N/A   Clear
11:15 PM 35.6 °F 29.2 °F 21.2 °F 56% 30.11 in 10.0 mi East 8.1 mph - N/A   Clear
11:35 PM 35.6 °F 29.2 °F 21.2 °F 56% 30.11 in 10.0 mi East 8.1 mph - N/A   Clear
11:55 PM 33.8 °F 27.0 °F 21.2 °F 60% 30.10 in 10.0 mi East 8.1 mph - N/A   Clear